Location: Newark
(48.1500°N, 13.1167°E)
Time: 07:38:06
(UTC+00:00)

KAITUO 1B - Pass Details

Date: 07 December 2021
Orbit: 486 x 507 km, 97.4° (Epoch: 18 January)

Event Time Altitude Azimuth Distance (km) Brightness Sun altitude
Rises 16:01:15 0° 143° (SE) 2,603 ? -7.7°
Reaches altitude 10° 16:03:28 10° 133° (SE) 1,726 ? -8.0°
Maximum altitude 16:06:48 32° 69° (ENE) 893 ? -8.5°
Drops below altitude 10° 16:10:11 10° 5° (N) 1,744 ? -9.0°
Sets 16:12:25 0° 356° (N) 2,636 ? -9.4°
